Location: Kendal
(54.3280°N, 2.7463°W)
Time: 17:29:18
(UTC+01:00)

HTV-X1 - Visible Passes

Search period start: 13 May 2026 00:00
Search period end: 23 May 2026 00:00
Orbit: 372 x 383 km, 51.6° (Epoch: 13 May)

Date Brightness Start Highest point End Pass type
(mag) Time Alt. Az. Time Alt. Az. Time Alt. Az.
13 May ? 22:57:01 10° WSW 23:00:01 50° S 23:02:31 14° ESE visible
14 May ? 00:32:45 10° W 00:34:36 28° WSW 00:34:36 28° WSW visible
14 May ? 21:56:16 10° WSW 21:59:13 43° SSE 22:02:11 10° E visible
14 May ? 23:31:52 10° W 23:34:52 47° S 23:35:54 31° SE visible
15 May ? 01:07:53 10° W 01:07:59 11° WSW 01:07:59 11° WSW visible
15 May ? 22:31:01 10° WSW 22:34:01 51° S 22:37:02 10° ESE visible
16 May ? 00:06:49 10° W 00:09:13 30° SW 00:09:13 30° SW visible
16 May ? 23:05:52 10° W 23:08:49 42° SSW 23:10:24 22° SE visible
17 May ? 00:42:07 10° WSW 00:42:29 12° WSW 00:42:29 12° WSW visible
17 May ? 22:04:57 10° W 22:07:57 50° S 22:10:57 10° ESE visible
17 May ? 23:40:51 10° W 23:43:28 25° SSW 23:43:38 25° SSW visible
18 May ? 22:39:47 10° W 22:42:40 35° SSW 22:44:47 15° SE visible
19 May ? 00:16:32 10° WSW 00:16:52 11° WSW 00:16:52 11° WSW visible
19 May ? 23:14:52 10° WSW 23:17:12 20° SSW 23:18:00 18° S visible
20 May ? 22:13:40 10° W 22:16:25 29° SSW 22:19:08 10° SE visible
21 May ? 22:48:56 10° WSW 22:50:51 15° SSW 22:52:22 12° S visible
